Annette Island, AK

6:53 AM AKDT on March 25, 2017 (GMT -0800)
Annette Island

Weather History for PANT - April, 2013

Change the Weather History Date:

Monday, April 15, 2013

  Actual Average Record
Temperature  
Mean Temperature 48 °F 44 °F  
Max Temperature 58 °F 50 °F 67 °F (1990)
Min Temperature 37 °F 38 °F 28 °F (1972)
Degree Days  
Heating Degree Days 17 21  
Month to date heating degree days 325 330  
Since 1 July heating degree days 5663 5652  
Cooling Degree Days 0    
Month to date cooling degree days 0  
Year to date cooling degree days 0  
Moisture  
Dew Point 31 °F    
Average Humidity 0    
Maximum Humidity 0    
Minimum Humidity 0    
Precipitation  
Precipitation 0.00 in 0.22 in 1.40 in (2007)
Month to date precipitation 2.69 3.66  
Year to date precipitation 28.61 29.75  
Snow  
Snow 0.00 in 0.10 in 1.70 in (1964)
Month to date snowfall T 1.1  
Since 1 July snowfall 12.8 34.5  
Snow Depth 0.00 in    
Sea Level Pressure  
Sea Level Pressure 30.32 in    
Wind  
Wind Speed 5 mph (NW)    
Max Wind Speed 10 mph    
Max Gust Speed 13 mph    
Visibility 10 miles    
Events      
T = Trace of Precipitation, MM = Missing Value Source: NWS Daily Summary

Daily Weather History Graph

Daily Weather History Graph

Search for Another Location

Airport or City:

Trip Planner

Search our weather history database for the weather conditions in past years. The results will help you decide how hot, cold, wet, or windy it might be!

Date:

Astronomy

Apr. 15, 2013 Rise Set
Actual Time 5:42 AM AKDT 7:51 PM AKDT
Civil Twilight 5:02 AM AKDT 8:30 PM AKDT
Nautical Twilight 4:13 AM AKDT 9:20 PM AKDT
Astronomical Twilight 3:14 AM AKDT 10:20 PM AKDT
Moon 8:43 AM AKDT (4/15) 12:39 AM AKDT (4/15)
Length of Visible Light 15h 28m
Length of Day
14h 09m
Waxing Crescent, 26% of the Moon is Illuminated
Apr 15
Waxing Crescent
Apr 18
First Quarter
Apr 25
Full
May 2
Last Quarter
May 9
New

Hourly Weather History & Observations

Time (AKDT) Temp. Windchill Dew Point Humidity Pressure Visibility Wind Dir Wind Speed Gust Speed Precip Events Conditions
12:53 AM 37.0 °F 34.5 °F 34.0 °F 89% 30.20 in 10.0 mi NW 3.5 mph - N/A   Clear
1:53 AM 39.9 °F 35.8 °F 34.0 °F 79% 30.22 in 10.0 mi NNW 5.8 mph - N/A   Clear
2:53 AM 42.1 °F 38.4 °F 30.9 °F 65% 30.23 in 10.0 mi NNW 5.8 mph - N/A   Clear
3:53 AM 41.0 °F 36.4 °F 33.1 °F 73% 30.24 in 10.0 mi NW 6.9 mph - N/A   Clear
4:53 AM 39.9 °F 36.7 °F 30.9 °F 70% 30.25 in 10.0 mi NNW 4.6 mph - N/A   Clear
5:53 AM 39.9 °F 36.7 °F 32.0 °F 73% 30.27 in 10.0 mi NNW 4.6 mph - N/A   Clear
6:53 AM 42.1 °F 37.7 °F 34.0 °F 73% 30.28 in 10.0 mi NNW 6.9 mph - N/A   Clear
7:53 AM 45.0 °F 40.6 °F 35.1 °F 68% 30.30 in 10.0 mi NW 8.1 mph - N/A   Clear
8:53 AM 48.9 °F - 33.1 °F 54% 30.31 in 10.0 mi NW 4.6 mph - N/A   Clear
9:53 AM 50.0 °F - 32.0 °F 50% 30.32 in 10.0 mi Variable 6.9 mph - N/A   Clear
10:53 AM 51.1 °F - 33.1 °F 50% 30.33 in 10.0 mi NNW 6.9 mph - N/A   Clear
11:53 AM 54.0 °F - 28.0 °F 37% 30.33 in 10.0 mi NW 8.1 mph - N/A   Clear
12:53 PM 55.0 °F - 26.1 °F 33% 30.34 in 10.0 mi WNW 5.8 mph - N/A   Scattered Clouds
1:53 PM 57.0 °F - 27.0 °F 32% 30.35 in 10.0 mi Variable 4.6 mph - N/A   Scattered Clouds
2:53 PM 57.0 °F - 21.0 °F 25% 30.35 in 10.0 mi West 5.8 mph - N/A   Scattered Clouds
3:53 PM 57.0 °F - 24.1 °F 28% 30.35 in 10.0 mi WNW 8.1 mph - N/A   Mostly Cloudy
4:53 PM 53.1 °F - 23.0 °F 31% 30.35 in 10.0 mi WSW 6.9 mph - N/A   Mostly Cloudy
5:53 PM 51.1 °F - 28.9 °F 43% 30.35 in 10.0 mi Calm Calm - N/A   Clear
6:53 PM 50.0 °F - 28.9 °F 44% 30.36 in 10.0 mi Calm Calm - N/A   Clear
7:53 PM 45.0 °F - 36.0 °F 71% 30.36 in 10.0 mi Calm Calm - N/A   Clear
8:53 PM 41.0 °F - 33.1 °F 73% 30.38 in 10.0 mi Calm Calm - N/A   Clear
9:53 PM 39.0 °F - 36.0 °F 89% 30.38 in 10.0 mi Calm Calm - N/A   Clear
10:53 PM 42.1 °F 39.2 °F 33.1 °F 70% 30.39 in 10.0 mi NNW 4.6 mph - N/A   Clear
11:53 PM 43.0 °F 41.3 °F 35.1 °F 74% 30.39 in 10.0 mi NNW 3.5 mph - N/A   Clear